Location: St Paul
(33.4390°N, 83.7350°W)
Time: 18:10:58
(UTC-05:00)

METEOR-M - Pass Details

Date: 06 October 2017
Orbit: 816 x 819 km, 98.4° (Epoch: 17 December)

Event Time Altitude Azimuth Distance (km) Brightness Sun altitude
Rises 19:28:14 0° 155° (SSE) 3,334 7.1 -4.1°
Reaches altitude 10° 19:30:36 10° 151° (SSE) 2,405 6.3 -4.6°
Maximum altitude 19:35:48 57° 74° (ENE) 961 4.2 -5.7°
Drops below altitude 10° 19:41:02 10° 357° (N) 2,419 6.6 -6.8°
Sets 19:43:25 0° 353° (N) 3,354 7.4 -7.3°
